Pensacola NAS, FL

9:14 PM CDT on June 22, 2017 (GMT -0500)
Pensacola Naval Air Station

Weather History for KNPA - February, 2013

Change the Weather History Date:

Saturday, February 23, 2013

  Actual Average Record
Temperature  
Mean Temperature 63 °F -  
Max Temperature 69 °F 63 °F 77 °F (2017)
Min Temperature 57 °F 46 °F 32 °F (1999)
Degree Days  
Heating Degree Days 2    
Growing Degree Days 13 (Base 50)    
Moisture  
Dew Point 63 °F    
Average Humidity 98    
Maximum Humidity 100    
Minimum Humidity 93    
Precipitation  
Precipitation 0.24 in - - ()
Sea Level Pressure  
Sea Level Pressure 29.87 in    
Wind  
Wind Speed 8 mph (WNW)    
Max Wind Speed 12 mph    
Max Gust Speed -    
Visibility 7 miles    
Events Fog , Rain , Thunderstorm    
Averages and records for this station are not official NWS values.
T = Trace of Precipitation, MM = Missing Value Source: NWS Daily Summary

Daily Weather History Graph

Daily Weather History Graph

Search for Another Location

Airport or City:

Trip Planner

Search our weather history database for the weather conditions in past years. The results will help you decide how hot, cold, wet, or windy it might be!

Date:

Astronomy

Feb. 23, 2013 Rise Set
Actual Time 6:21 AM CST 5:44 PM CST
Civil Twilight 5:57 AM CST 6:08 PM CST
Nautical Twilight 5:29 AM CST 6:36 PM CST
Astronomical Twilight 5:01 AM CST 7:04 PM CST
Moon 3:58 PM CST 4:38 AM CST
Length of Visible Light 12h 10m
Length of Day
11h 22m
Waxing Gibbous, 95% of the Moon is Illuminated
Feb 23
Waxing Gibbous
Feb 25
Full
Mar 4
Last Quarter
Mar 11
New
Mar 19
First Quarter

Hourly Weather History & Observations

Time (CST) Temp. Dew Point Humidity Pressure Visibility Wind Dir Wind Speed Gust Speed Precip Events Conditions
12:56 AM 66.9 °F 66.9 °F 100% 29.88 in 0.5 mi SSW 8.1 mph - 0.00 in Fog Fog
1:04 AM 66.2 °F 66.2 °F 100% 29.87 in 0.2 mi SW 6.9 mph - 0.00 in Fog , Rain Light Rain
1:16 AM 66.2 °F 66.2 °F 100% 29.87 in 0.5 mi SSW 9.2 mph - 0.00 in Fog Fog
1:56 AM 66.9 °F 66.9 °F 100% 29.86 in 0.8 mi SW 9.2 mph - 0.00 in   Mist
2:03 AM 66.2 °F 66.2 °F 100% 29.85 in 2.0 mi SW 11.5 mph - N/A   Overcast
2:11 AM 68.0 °F 68.0 °F 100% 29.85 in 6.0 mi SW 11.5 mph - N/A   Overcast
2:18 AM 66.2 °F 66.2 °F 100% 29.85 in 6.0 mi SW 11.5 mph - N/A   Overcast
2:44 AM 66.2 °F 66.2 °F 100% 29.85 in 1.8 mi SSW 10.4 mph - N/A   Overcast
2:56 AM 66.9 °F 66.9 °F 100% 29.86 in 1.2 mi SW 8.1 mph - N/A   Overcast
3:08 AM 66.2 °F 66.2 °F 100% 29.84 in 2.5 mi SW 8.1 mph - N/A   Overcast
3:21 AM 68.0 °F 68.0 °F 100% 29.84 in 4.0 mi SW 10.4 mph - 0.00 in Rain Light Rain
3:56 AM 68.0 °F 68.0 °F 100% 29.86 in 3.0 mi WSW 9.2 mph - 0.02 in   Overcast
4:11 AM 68.0 °F 68.0 °F 100% 29.85 in 2.0 mi SW 8.1 mph - 0.00 in Rain Light Rain
4:22 AM 68.0 °F 68.0 °F 100% 29.85 in 1.8 mi SW 8.1 mph - 0.03 in Rain Light Rain
4:27 AM 68.0 °F 68.0 °F 100% 29.85 in 2.5 mi SW 8.1 mph - 0.04 in Rain , Thunderstorm Thunderstorms and Rain
4:38 AM 68.0 °F 68.0 °F 100% 29.84 in 1.0 mi SW 3.5 mph - 0.19 in Rain , Thunderstorm Heavy Thunderstorms and Rain
4:51 AM 69.8 °F 68.0 °F 94% 29.86 in 8.0 mi WSW 8.1 mph - 0.19 in Rain Light Rain
4:56 AM 69.1 °F 68.0 °F 96% 29.86 in 8.0 mi West 8.1 mph - 0.19 in Rain Light Rain
5:29 AM 68.0 °F 68.0 °F 100% 29.86 in 6.0 mi NW 4.6 mph - 0.00 in Rain Light Rain
5:39 AM 64.4 °F 64.4 °F 100% 29.86 in 6.0 mi NNW 8.1 mph - 0.00 in Rain Light Rain
5:56 AM 64.0 °F 63.0 °F 96% 29.88 in 8.0 mi NW 8.1 mph - 0.00 in   Overcast
6:04 AM 64.4 °F 62.6 °F 94% 29.87 in 8.0 mi NNW 6.9 mph - N/A   Overcast
6:25 AM 62.6 °F 62.6 °F 100% 29.87 in 6.0 mi NNW 8.1 mph - N/A   Overcast
6:47 AM 62.6 °F 62.6 °F 100% 29.88 in 8.0 mi North 4.6 mph - 0.00 in Rain Light Rain
6:54 AM 62.6 °F 62.6 °F 100% 29.89 in 10.0 mi NNW 9.2 mph - 0.00 in Rain Light Rain
6:56 AM 62.1 °F 62.1 °F 100% 29.90 in 10.0 mi NNW 9.2 mph - 0.00 in Rain Light Rain
7:39 AM 60.8 °F 60.8 °F 100% 29.90 in 6.0 mi North 6.9 mph - 0.01 in Rain Light Rain
7:56 AM 60.1 °F 60.1 °F 100% 29.91 in 7.0 mi NNW 5.8 mph - 0.02 in Rain Light Rain
9:05 AM 60.8 °F 60.8 °F 100% 29.89 in 6.0 mi Calm Calm - 0.01 in Rain Light Rain
9:50 AM 62.6 °F 62.6 °F 100% 29.90 in 10.0 mi NW 5.8 mph - 0.01 in Rain Light Rain
9:56 AM 62.1 °F 61.0 °F 96% 29.90 in 10.0 mi NNW 9.2 mph - 0.01 in Rain Light Rain
10:25 AM 62.6 °F 60.8 °F 94% 29.90 in 10.0 mi NNW 5.8 mph - 0.00 in   Overcast
10:34 AM 62.6 °F 60.8 °F 94% 29.89 in 9.0 mi NNW 5.8 mph - 0.00 in Rain Light Rain
10:56 AM 61.0 °F 59.0 °F 93% 29.89 in 10.0 mi Calm Calm - 0.00 in Rain Light Rain
11:56 AM 62.1 °F 60.1 °F 93% 29.90 in 7.0 mi North 5.8 mph - 0.00 in   Overcast
12:56 PM 59.0 °F 57.0 °F 93% 29.88 in 10.0 mi NNW 5.8 mph - 0.00 in   Overcast
1:04 PM 59.0 °F 57.2 °F 94% 29.87 in 10.0 mi NNW 5.8 mph - 0.00 in Rain Light Rain
1:43 PM 59.0 °F 57.2 °F 94% 29.87 in 10.0 mi NNW 9.2 mph - 0.00 in   Overcast
1:56 PM 59.0 °F 57.0 °F 93% 29.89 in 10.0 mi NNW 9.2 mph - 0.00 in   Overcast
2:13 PM 59.0 °F 57.2 °F 94% 29.88 in 10.0 mi North 6.9 mph - 0.00 in Rain Light Rain
2:19 PM 59.0 °F 57.2 °F 94% 29.87 in 10.0 mi North 6.9 mph - 0.00 in Rain Light Rain
2:56 PM 59.0 °F 57.0 °F 93% 29.87 in 10.0 mi North 8.1 mph - 0.00 in   Overcast
3:21 PM 59.0 °F 57.2 °F 94% 29.90 in 10.0 mi NNW 5.8 mph - N/A   Overcast
3:56 PM 59.0 °F 57.0 °F 93% 29.86 in 10.0 mi ENE 4.6 mph - 0.00 in Rain Light Rain
4:56 PM 57.9 °F 57.0 °F 97% 29.81 in 10.0 mi East 5.8 mph - 0.00 in Rain Light Rain
5:13 PM 57.2 °F 57.2 °F 100% 29.83 in 10.0 mi Calm Calm - 0.00 in   Mostly Cloudy
5:30 PM 57.2 °F 57.2 °F 100% 29.83 in 10.0 mi NE 4.6 mph - 0.00 in Rain Light Rain